GPS BIIF-4 (PRN 27)

Last updated on Thu Aug 20 2026 00:03:18 GMT+0000 (Coordinated Universal Time)

1 39166U 13023A 26231.00410733 .00000003 00000+0 00000+0 0 9997 2 39166 54.4588 266.4103 0141683 51.1182 310.1957 2.00563362 97148
UTC large
Height (km)
Speed (km/s)
/
Latitude / Longitude
Inclination (degrees)
Orbital Period (minutes)
Azimuth
Elevation
Range (km)
Doppler Factor

Next 0 passes for location: London (51.5072 / 0.1276)

No passes found over London.
GPS BIIF-4 (PRN 27)